Regional Weather Roundup
Issued by NWS

Home | Current Version | Previous Version | Graphics & Text | Print | Product List | Glossary On
Versions: 1 2 3 4 5 6 7 8 9 10 11 12 13 14 15 16 17 18 19 20 21 22 23 24 25 26 27 28 29 30 31 32 33 34 35 36 37 38 39 40 41 42 43 44 45 46 47 48 49 50
000
ASUS43 KBIS 100402
RWRND

NORTH DAKOTA REGIONAL WEATHER ROUNDUP
NATIONAL WEATHER SERVICE BISMARCK ND
1000 PM CST TUE FEB 09 2016

NOTE: "FAIR" INDICATES FEW OR NO CLOUDS BELOW 12,000 FEET WITH NO
SIGNIFICANT WEATHER AND/OR OBSTRUCTIONS TO VISIBILITY.


NDZ001>003-009>011-017-100500-
NORTHWEST NORTH DAKOTA

CITY           SKY/WX    TMP DP  RH WIND       PRES   REMARKS
WILLISTON      CLOUDY    30  23  75 CALM      29.97F
MINOT          LGT SNOW  22  15  75 E14       30.04F WCI   9
MINOT AFB      LGT SNOW  19  17  92 SE15      30.04F FOG     WCI   5
$$

NDZ018>021-031>035-040>046-100500-
SOUTHWEST NORTH DAKOTA

CITY           SKY/WX    TMP DP  RH WIND       PRES   REMARKS
BISMARCK       CLOUDY    35  22  58 E5        30.04F
DICKINSON      CLOUDY    26  20  77 S10       29.96F WCI  16
GARRISON         N/A     27  20  75 E12       30.01F WCI  17
HETTINGER ARPT CLEAR     29  21  72 S8        30.02F
$$

NDZ004>008-012>016-024-026-027-054-100500-
NORTHEAST NORTH DAKOTA

CITY           SKY/WX    TMP DP  RH WIND       PRES   REMARKS
GRAND FORKS    CLOUDY     4  -3  73 N9        30.24F WCI -10
GRND FRKS AFB  CLOUDY     1  -4  80 NE6       30.24R WCI -11
DEVILS LAKE    CLOUDY    10   5  80 E7        30.16F WCI  -1
$$

NDZ022-023-025-028>030-036>039-047>053-100500-
SOUTHEAST NORTH DAKOTA

CITY           SKY/WX    TMP DP  RH WIND       PRES   REMARKS
FARGO          CLOUDY     5  -1  76 NE9       30.21F WCI  -9
JAMESTOWN      CLOUDY    14   7  73 E7        30.12F WCI   4
$$





USA.gov is the U.S. government's official web portal to all federal, state and local government web resources and services.